Time[GMT],salinity[psu](20m),sigma_t[kg/m^3](20m),conductivity[msiemens/cm](20m),temperature[C](20m)
2019-11-26 21:00,32.236,24.876,34.941,9.50
2019-11-26 22:00,32.265,24.890,35.022,9.56
2019-11-26 23:00,32.270,24.887,35.063,9.60
2019-11-27 00:00,32.262,24.880,35.059,9.60
2019-11-27 01:00,32.273,24.916,34.922,9.44
2019-11-27 02:00,32.269,24.904,34.959,9.48
2019-11-27 03:00,32.276,24.894,35.056,9.58
2019-11-27 04:00,32.286,24.917,34.976,9.48
2019-11-27 05:00,32.282,24.914,34.978,9.49
2019-11-27 06:00,32.280,24.918,34.941,9.45
2019-11-27 07:00,32.270,24.907,34.951,9.47
2019-11-27 08:00,32.267,24.904,34.952,9.48
2019-11-27 09:00,32.256,24.907,34.876,9.40
2019-11-27 10:00,32.260,24.902,34.928,9.46
2019-11-27 11:00,32.251,24.907,34.855,9.38
2019-11-27 12:00,32.264,24.887,35.032,9.57
2019-11-27 13:00,32.284,24.876,35.191,9.73
2019-11-27 14:00,32.277,24.902,35.013,9.53
2019-11-27 15:00,32.277,24.909,34.979,9.50
2019-11-27 16:00,32.260,24.845,35.234,9.81
2019-11-27 17:00,32.279,24.902,35.027,9.55
2019-11-27 18:00,32.201,24.814,35.099,9.72
2019-11-27 19:00,32.270,24.855,35.234,9.79
2019-11-27 20:00,32.289,24.877,35.217,9.75
2019-11-27 21:00,32.072,24.768,34.673,9.37
2019-11-27 22:00,32.057,24.759,34.641,9.36
2019-11-27 23:00,32.103,24.760,34.878,9.57
2019-11-28 00:00,32.045,24.746,34.651,9.38
2019-11-28 01:00,32.108,24.782,34.786,9.46
2019-11-28 02:00,32.020,24.734,34.584,9.33
2019-11-28 03:00,32.032,24.735,34.639,9.38
2019-11-28 04:00,32.065,24.781,34.565,9.26
2019-11-28 05:00,32.285,24.894,35.102,9.63
2019-11-28 06:00,32.051,24.795,34.406,9.09
2019-11-28 07:00,32.093,24.810,34.549,9.21
2019-11-28 08:00,32.234,24.866,34.992,9.56
2019-11-28 09:00,32.217,24.847,35.001,9.59
2019-11-28 10:00,32.158,24.815,34.869,9.50
2019-11-28 11:00,32.155,24.798,34.946,9.59
2019-11-28 12:00,32.192,24.829,34.971,9.58
2019-11-28 13:00,32.179,24.835,34.869,9.48
2019-11-28 14:00,32.220,24.887,34.798,9.35
2019-11-28 15:00,32.317,24.984,34.777,9.22
2019-11-28 16:00,32.352,25.034,34.682,9.08
2019-11-28 17:00,32.401,25.065,34.771,9.12
2019-11-28 18:00,32.435,25.086,34.836,9.16
2019-11-28 19:00,32.462,25.102,34.889,9.19
2019-11-28 20:00,32.470,25.108,34.896,9.19
2019-11-28 21:00,32.475,25.108,34.925,9.22
2019-11-28 22:00,32.463,25.103,34.892,9.19
2019-11-28 23:00,32.463,25.103,34.890,9.19
2019-11-29 00:00,32.470,25.107,34.907,9.20
2019-11-29 01:00,32.486,25.117,34.932,9.21
2019-11-29 02:00,32.521,25.143,34.972,9.22
2019-11-29 03:00,32.528,25.147,34.986,9.23
2019-11-29 04:00,32.529,25.149,34.983,9.22
2019-11-29 05:00,32.523,25.144,34.979,9.23
2019-11-29 06:00,32.507,25.138,34.925,9.18
2019-11-29 07:00,32.495,25.130,34.909,9.18
2019-11-29 08:00,32.490,25.127,34.894,9.16
2019-11-29 09:00,32.480,25.124,34.862,9.14
2019-11-29 10:00,32.482,25.126,34.866,9.14
2019-11-29 11:00,32.482,25.128,34.852,9.13
2019-11-29 12:00,32.488,25.132,34.860,9.13
2019-11-29 13:00,32.483,25.128,34.859,9.13
2019-11-29 14:00,32.471,25.125,34.806,9.09
2019-11-29 15:00,32.400,25.081,34.672,9.01
2019-11-29 16:00,32.395,25.074,34.687,9.03
2019-11-29 17:00,32.408,25.081,34.715,9.05
2019-11-29 18:00,32.422,25.089,34.744,9.07
2019-11-29 19:00,32.416,25.085,34.735,9.07
2019-11-29 20:00,32.415,25.085,34.733,9.06
2019-11-29 21:00,32.379,25.064,34.655,9.02
2019-11-29 22:00,32.354,25.050,34.600,8.98
2019-11-29 23:00,32.341,25.043,34.576,8.97
2019-11-30 00:00,32.300,25.014,34.514,8.94
2019-11-30 01:00,32.299,25.006,34.557,8.99
2019-11-30 02:00,32.307,25.010,34.574,9.00
2019-11-30 03:00,32.308,25.010,34.578,9.01
2019-11-30 04:00,32.314,25.014,34.589,9.01
2019-11-30 05:00,32.300,25.005,34.565,9.00
2019-11-30 06:00,32.299,25.003,34.572,9.01
2019-11-30 07:00,32.207,24.953,34.360,8.87
2019-11-30 08:00,32.153,24.935,34.168,8.71
2019-11-30 09:00,32.205,24.950,34.364,8.87
2019-11-30 10:00,32.187,24.934,34.355,8.88
2019-11-30 11:00,32.273,24.983,34.547,9.01
2019-11-30 12:00,32.273,24.984,34.542,9.00
2019-11-30 13:00,32.260,24.974,34.527,9.00
2019-11-30 14:00,32.258,24.970,34.535,9.01
2019-11-30 15:00,32.262,24.970,34.563,9.04
2019-11-30 16:00,32.250,24.954,34.581,9.07
2019-11-30 17:00,32.232,24.935,34.592,9.11
2019-11-30 18:00,32.205,24.909,34.598,9.14
2019-11-30 19:00,32.187,24.908,34.504,9.05
2019-11-30 20:00,32.140,24.893,34.333,8.91
2019-11-30 21:00,32.132,24.897,34.268,8.84
2019-11-30 22:00,32.142,24.895,34.339,8.91
2019-11-30 23:00,32.189,24.905,34.533,9.08
2019-12-01 00:00,32.187,24.908,34.502,9.05
2019-12-01 01:00,32.333,25.016,34.683,9.10
2019-12-01 02:00,32.348,25.033,34.663,9.06
2019-12-01 03:00,32.360,25.047,34.653,9.03
2019-12-01 04:00,32.246,24.946,34.607,9.11
2019-12-01 05:00,32.195,24.925,34.452,8.98
2019-12-01 06:00,32.109,24.887,34.203,8.79
2019-12-01 07:00,32.167,24.919,34.339,8.89
2019-12-01 08:00,32.187,24.933,34.361,8.89
2019-12-01 09:00,32.195,24.939,34.375,8.90
2019-12-01 10:00,32.207,24.945,34.399,8.91
2019-12-01 11:00,32.235,24.955,34.494,8.99
2019-12-01 12:00,32.281,24.981,34.598,9.06
2019-12-01 13:00,32.201,24.933,34.444,8.97
2019-12-01 14:00,32.288,24.986,34.612,9.07
2019-12-01 15:00,32.224,24.952,34.457,8.96
2019-12-01 16:00,32.171,24.912,34.396,8.95
2019-12-01 17:00,32.149,24.912,34.276,8.83
2019-12-01 18:00,32.087,24.922,33.882,8.45
2019-12-01 19:00,32.086,24.908,33.956,8.53
2019-12-01 20:00,32.086,24.909,33.950,8.53
2019-12-01 21:00,32.074,24.902,33.922,8.51
2019-12-01 22:00,32.079,24.890,34.018,8.61
2019-12-01 23:00,32.144,24.919,34.210,8.76
2019-12-02 00:00,32.247,24.980,34.423,8.89
2019-12-02 01:00,32.124,24.901,34.206,8.78
2019-12-02 02:00,32.102,24.880,34.205,8.80
2019-12-02 03:00,32.103,24.911,34.029,8.60
2019-12-02 04:00,32.025,24.884,33.762,8.38
2019-12-02 05:00,32.026,24.880,33.787,8.41
2019-12-02 06:00,31.994,24.863,33.710,8.35
2019-12-02 07:00,31.988,24.857,33.712,8.36
2019-12-02 08:00,31.988,24.858,33.707,8.36
2019-12-02 09:00,32.021,24.874,33.793,8.42
2019-12-02 10:00,32.041,24.886,33.836,8.45
2019-12-02 11:00,32.023,24.878,33.787,8.41
2019-12-02 12:00,32.059,24.898,33.867,8.46
2019-12-02 13:00,32.077,24.906,33.919,8.50
2019-12-02 14:00,32.102,24.920,33.972,8.54
2019-12-02 15:00,32.107,24.925,33.973,8.53
2019-12-02 16:00,32.069,24.904,33.885,8.47
2019-12-02 17:00,32.056,24.896,33.859,8.46
2019-12-02 18:00,32.029,24.882,33.794,8.41
2019-12-02 19:00,32.028,24.884,33.775,8.39
2019-12-02 20:00,32.090,24.921,33.903,8.47
2019-12-02 21:00,32.077,24.917,33.856,8.43
2019-12-02 22:00,32.035,24.897,33.738,8.34
2019-12-02 23:00,32.005,24.882,33.659,8.28
2019-12-03 00:00,31.998,24.876,33.658,8.29
2019-12-03 01:00,31.997,24.878,33.640,8.27
2019-12-03 02:00,31.989,24.872,33.626,8.26
2019-12-03 03:00,32.000,24.879,33.650,8.28
2019-12-03 04:00,32.024,24.888,33.731,8.34
2019-12-03 05:00,32.087,24.931,33.826,8.38
2019-12-03 06:00,32.284,25.051,34.213,8.61
2019-12-03 07:00,32.540,25.237,34.542,8.71
2019-12-03 08:00,32.601,25.278,34.639,8.75
2019-12-03 09:00,32.584,25.271,34.586,8.71
2019-12-03 10:00,32.578,25.270,34.561,8.69
2019-12-03 11:00,32.572,25.267,34.545,8.68
2019-12-03 12:00,32.568,25.263,34.547,8.69
2019-12-03 13:00,32.569,25.264,34.548,8.68
2019-12-03 14:00,32.569,25.263,34.556,8.69
2019-12-03 15:00,32.521,25.249,34.370,8.53
2019-12-03 16:00,32.508,25.242,34.339,8.51
2019-12-03 17:00,32.483,25.224,34.306,8.50
2019-12-03 18:00,32.515,25.242,34.380,8.55
2019-12-03 19:00,32.522,25.247,34.383,8.55
2019-12-03 20:00,32.478,25.225,34.274,8.47
2019-12-03 21:00,32.478,25.217,34.318,8.52
2019-12-03 22:00,32.441,25.210,34.156,8.38
2019-12-03 23:00,32.266,25.113,33.746,8.10
2019-12-04 00:00,32.475,25.225,34.252,8.45
2019-12-04 01:00,32.321,25.144,33.873,8.18
2019-12-04 02:00,32.185,25.066,33.574,7.99
2019-12-04 03:00,32.271,25.119,33.741,8.08
2019-12-04 04:00,32.255,25.110,33.706,8.06
2019-12-04 05:00,32.235,25.107,33.609,7.97
2019-12-04 06:00,32.245,25.111,33.646,8.00
2019-12-04 07:00,32.192,25.085,33.503,7.90
2019-12-04 08:00,32.281,25.132,33.724,8.05
2019-12-04 09:00,32.216,25.102,33.534,7.91
2019-12-04 10:00,32.290,25.134,33.755,8.08
2019-12-04 11:00,32.275,25.130,33.698,8.03
2019-12-04 12:00,32.235,25.113,33.576,7.93
2019-12-04 13:00,32.275,25.126,33.722,8.06
2019-12-04 14:00,32.246,25.116,33.621,7.97
2019-12-04 15:00,32.272,25.127,33.701,8.04
2019-12-04 16:00,32.333,25.132,34.011,8.33
2019-12-04 17:00,32.335,25.130,34.035,8.35
2019-12-04 18:00,32.342,25.133,34.059,8.37
2019-12-04 19:00,32.216,25.090,33.606,7.99
2019-12-04 20:00,32.255,25.100,33.767,8.13
2019-12-04 21:00,32.213,25.080,33.644,8.04
2019-12-04 22:00,32.197,25.072,33.609,8.01
2019-12-04 23:00,32.161,25.050,33.534,7.97
2019-12-05 00:00,32.164,25.050,33.550,7.98
2019-12-05 01:00,32.160,25.046,33.553,7.99
2019-12-05 02:00,32.192,25.069,33.597,8.00
2019-12-05 03:00,32.289,25.110,33.896,8.24
2019-12-05 04:00,32.294,25.113,33.909,8.25
2019-12-05 05:00,32.168,25.064,33.490,7.91
2019-12-05 06:00,32.167,25.063,33.487,7.91
2019-12-05 07:00,32.170,25.065,33.492,7.91
2019-12-05 08:00,32.118,25.028,33.425,7.89
2019-12-05 09:00,32.110,25.025,33.393,7.86
2019-12-05 10:00,32.114,25.029,33.395,7.85
2019-12-05 11:00,32.119,25.029,33.423,7.88
2019-12-05 12:00,32.138,25.030,33.527,7.98
2019-12-05 13:00,32.149,25.028,33.595,8.05
2019-12-05 14:00,32.152,25.031,33.597,8.05
2019-12-05 15:00,32.152,25.029,33.610,8.06
2019-12-05 16:00,32.157,25.033,33.614,8.06
2019-12-05 17:00,32.155,25.027,33.641,8.10
2019-12-05 18:00,32.155,25.029,33.625,8.08
2019-12-05 19:00,32.146,25.018,33.639,8.10
2019-12-05 20:00,32.149,25.025,33.618,8.08
2019-12-05 21:00,32.159,25.033,33.625,8.07
2019-12-05 22:00,32.159,25.029,33.648,8.10
2019-12-05 23:00,32.167,25.034,33.667,8.11
2019-12-06 00:00,32.150,25.030,33.593,8.05
2019-12-06 01:00,32.153,25.034,33.581,8.03
2019-12-06 02:00,32.147,25.030,33.574,8.03
2019-12-06 03:00,32.145,25.029,33.574,8.03
2019-12-06 04:00,32.156,25.041,33.564,8.01
2019-12-06 05:00,32.154,25.043,33.538,7.98
2019-12-06 06:00,32.158,25.052,33.507,7.94
2019-12-06 07:00,32.143,25.045,33.462,7.90
2019-12-06 08:00,32.143,25.047,33.447,7.88
2019-12-06 09:00,32.140,25.051,33.406,7.84
2019-12-06 10:00,32.137,25.056,33.362,7.79
2019-12-06 11:00,32.137,25.060,33.338,7.76
2019-12-06 12:00,32.148,25.065,33.372,7.79
2019-12-06 13:00,32.147,25.066,33.358,7.78
2019-12-06 14:00,32.137,25.061,33.329,7.75
2019-12-06 15:00,32.136,25.059,33.341,7.77
2019-12-06 16:00,32.136,25.056,33.354,7.78
2019-12-06 17:00,32.133,25.045,33.404,7.85
2019-12-06 18:00,32.158,25.064,33.432,7.85
2019-12-06 19:00,32.164,25.065,33.457,7.87
2019-12-06 20:00,32.167,25.069,33.456,7.87
2019-12-06 21:00,32.170,25.071,33.459,7.87
2019-12-06 22:00,32.170,25.071,33.456,7.87
2019-12-06 23:00,32.166,25.069,33.446,7.86
2019-12-07 00:00,32.169,25.071,33.455,7.87
2019-12-07 01:00,32.169,25.072,33.444,7.85
2019-12-07 02:00,32.169,25.074,33.435,7.84
2019-12-07 03:00,32.173,25.079,33.431,7.83
2019-12-07 04:00,32.174,25.084,33.404,7.80
2019-12-07 05:00,32.168,25.082,33.382,7.78
2019-12-07 06:00,32.168,25.082,33.381,7.78
2019-12-07 07:00,32.172,25.086,33.381,7.78
2019-12-07 08:00,32.183,25.090,33.417,7.81
2019-12-07 09:00,32.176,25.085,33.410,7.81
2019-12-07 10:00,32.190,25.090,33.455,7.84
2019-12-07 11:00,32.231,25.109,33.578,7.94
2019-12-07 12:00,32.234,25.115,33.556,7.91
2019-12-07 13:00,32.260,25.124,33.651,7.99
2019-12-07 14:00,32.274,25.131,33.691,8.02
2019-12-07 15:00,32.274,25.119,33.761,8.10
2019-12-07 16:00,32.279,25.135,33.689,8.02
2019-12-07 17:00,32.285,25.150,33.636,7.95
2019-12-07 18:00,32.283,25.155,33.591,7.90
2019-12-07 19:00,32.266,25.143,33.569,7.89
2019-12-07 20:00,32.288,25.155,33.620,7.93
2019-12-07 21:00,32.279,25.147,33.617,7.93
2019-12-07 22:00,32.259,25.130,33.603,7.94
2019-12-07 23:00,32.290,25.150,33.663,7.97
2019-12-08 00:00,32.317,25.169,33.700,7.99
2019-12-08 01:00,32.312,25.177,33.624,7.91
2019-12-08 02:00,32.298,25.176,33.554,7.84
2019-12-08 03:00,32.305,25.178,33.580,7.86
2019-12-08 04:00,32.302,25.178,33.561,7.84
2019-12-08 05:00,32.307,25.177,33.595,7.88
2019-12-08 06:00,32.302,25.170,33.609,7.90
2019-12-08 07:00,32.294,25.174,33.540,7.83
2019-12-08 08:00,32.305,25.170,33.629,7.92
2019-12-08 09:00,32.324,25.186,33.641,7.91
2019-12-08 10:00,32.347,25.203,33.671,7.92
2019-12-08 11:00,32.363,25.219,33.660,7.89
2019-12-08 12:00,32.366,25.223,33.655,7.88
2019-12-08 13:00,32.378,25.229,33.688,7.91
2019-12-08 14:00,32.370,25.229,33.637,7.86
2019-12-08 15:00,32.366,25.225,33.642,7.87
2019-12-08 16:00,32.364,25.220,33.660,7.89
2019-12-08 17:00,32.363,25.217,33.673,7.91
2019-12-08 18:00,32.335,25.198,33.630,7.89
2019-12-08 19:00,32.346,25.209,33.627,7.87
2019-12-08 20:00,32.365,25.221,33.660,7.89
2019-12-08 21:00,32.357,25.215,33.648,7.89
2019-12-08 22:00,32.301,25.182,33.533,7.81
2019-12-08 23:00,32.343,25.206,33.626,7.87
2019-12-09 00:00,32.363,25.220,33.654,7.89
2019-12-09 01:00,32.349,25.212,33.621,7.86
2019-12-09 02:00,32.326,25.201,33.560,7.82
2019-12-09 03:00,32.315,25.195,33.536,7.80
2019-12-09 04:00,32.303,25.191,33.487,7.76
2019-12-09 05:00,32.292,25.182,33.478,7.76
2019-12-09 06:00,32.297,25.189,33.465,7.74
2019-12-09 07:00,32.286,25.184,33.437,7.72
2019-12-09 08:00,32.269,25.174,33.396,7.69
2019-12-09 09:00,32.282,25.181,33.431,7.72
2019-12-09 10:00,32.300,25.191,33.470,7.74
2019-12-09 11:00,32.314,25.199,33.500,7.76
2019-12-09 12:00,32.326,25.208,33.513,7.76
2019-12-09 13:00,32.318,25.206,33.486,7.74
2019-12-09 14:00,32.310,25.201,33.466,7.73
2019-12-09 15:00,32.316,25.206,33.469,7.72
2019-12-09 16:00,32.333,25.218,33.493,7.73
2019-12-09 17:00,32.294,25.186,33.472,7.75
2019-12-09 18:00,32.316,25.205,33.479,7.73
2019-12-09 19:00,32.321,25.208,33.487,7.74
2019-12-09 20:00,32.323,25.209,33.489,7.74
2019-12-09 21:00,32.274,25.162,33.500,7.80
2019-12-09 22:00,32.287,25.175,33.492,7.78
2019-12-09 23:00,32.324,25.206,33.515,7.77
2019-12-10 00:00,32.411,25.264,33.665,7.85
2019-12-10 01:00,32.379,25.243,33.610,7.82
2019-12-10 02:00,32.359,25.230,33.569,7.79
2019-12-10 03:00,32.406,25.259,33.662,7.85
2019-12-10 04:00,32.417,25.262,33.705,7.89
2019-12-10 05:00,32.323,25.201,33.544,7.80
2019-12-10 06:00,32.277,25.155,33.559,7.87
2019-12-10 07:00,32.516,25.314,33.957,8.07
2019-12-10 08:00,32.540,25.328,34.006,8.10
2019-12-10 09:00,32.439,25.279,33.731,7.89
2019-12-10 10:00,32.534,25.326,33.989,8.09
2019-12-10 11:00,32.356,25.216,33.638,7.87
2019-12-10 12:00,32.378,25.230,33.677,7.90
2019-12-10 13:00,32.517,25.315,33.959,8.07
2019-12-10 14:00,32.410,25.258,33.693,7.88
2019-12-10 15:00,32.522,25.330,33.891,7.99
2019-12-10 16:00,32.455,25.288,33.764,7.91
2019-12-10 17:00,32.348,25.206,33.656,7.90
2019-12-10 18:00,32.314,25.176,33.644,7.93
2019-12-10 19:00,32.313,25.175,33.642,7.93
2019-12-10 20:00,32.392,25.245,33.669,7.87
2019-12-10 21:00,32.415,25.259,33.711,7.90
2019-12-10 22:00,32.330,25.189,33.653,7.92
2019-12-10 23:00,32.332,25.191,33.657,7.92
2019-12-11 00:00,32.345,25.201,33.666,7.92
2019-12-11 01:00,32.353,25.208,33.668,7.91
2019-12-11 02:00,32.394,25.243,33.694,7.90
2019-12-11 03:00,32.364,25.218,33.674,7.91
2019-12-11 04:00,32.379,25.230,33.682,7.90
2019-12-11 05:00,32.393,25.242,33.696,7.90
2019-12-11 06:00,32.280,25.140,33.665,7.99
2019-12-11 07:00,32.469,25.298,33.785,7.92
2019-12-11 08:00,32.534,25.341,33.897,7.98
2019-12-11 09:00,32.547,25.347,33.930,8.00
2019-12-11 10:00,32.371,25.222,33.688,7.92
2019-12-11 11:00,32.353,25.212,33.643,7.88
2019-12-11 12:00,32.331,25.207,33.550,7.80
2019-12-11 13:00,32.326,25.204,33.541,7.80
2019-12-11 14:00,32.311,25.202,33.466,7.72
2019-12-11 15:00,32.355,25.228,33.563,7.79
2019-12-11 16:00,32.334,25.219,33.491,7.73
2019-12-11 17:00,32.401,25.254,33.667,7.86
2019-12-11 18:00,32.342,25.226,33.502,7.73
2019-12-11 19:00,32.349,25.228,33.524,7.75
2019-12-11 20:00,32.349,25.225,33.543,7.77
2019-12-11 21:00,32.319,25.202,33.511,7.77
2019-12-11 22:00,32.296,25.198,33.405,7.67
2019-12-11 23:00,32.300,25.204,33.391,7.65
2019-12-12 00:00,32.295,25.202,33.376,7.64
2019-12-12 01:00,32.304,25.209,33.382,7.63
2019-12-12 02:00,32.329,25.217,33.479,7.72
2019-12-12 03:00,32.343,25.226,33.499,7.73
2019-12-12 04:00,32.361,25.234,33.559,7.78
2019-12-12 05:00,32.358,25.232,33.556,7.78
2019-12-12 06:00,32.339,25.225,33.490,7.72
2019-12-12 07:00,32.317,25.217,33.414,7.66
2019-12-12 08:00,32.319,25.217,33.415,7.66
2019-12-12 09:00,32.328,25.225,33.423,7.66
2019-12-12 10:00,32.310,25.219,33.353,7.59
2019-12-12 11:00,32.318,25.225,33.369,7.60
2019-12-12 12:00,32.324,25.230,33.365,7.59
2019-12-12 13:00,32.329,25.238,33.348,7.57
2019-12-12 14:00,32.345,25.246,33.393,7.60
2019-12-12 15:00,32.362,25.255,33.436,7.63
2019-12-12 16:00,32.397,25.274,33.523,7.70
2019-12-12 17:00,32.409,25.280,33.550,7.72
2019-12-12 18:00,32.368,25.262,33.428,7.62
2019-12-12 19:00,32.369,25.256,33.469,7.67
2019-12-12 20:00,32.354,25.251,33.412,7.62
2019-12-12 21:00,32.350,25.244,33.434,7.64
2019-12-12 22:00,32.347,25.249,33.382,7.59
2019-12-12 23:00,32.345,25.244,33.406,7.62
2019-12-13 00:00,32.341,25.241,33.403,7.62
2019-12-13 01:00,32.339,25.237,33.412,7.63
2019-12-13 02:00,32.344,25.239,33.426,7.64
2019-12-13 03:00,32.355,25.244,33.461,7.67
2019-12-13 04:00,32.338,25.232,33.437,7.66
2019-12-13 05:00,32.347,25.238,33.455,7.67
2019-12-13 06:00,32.350,25.238,33.467,7.68
2019-12-13 07:00,32.346,25.237,33.453,7.67
2019-12-13 08:00,32.313,25.217,33.385,7.63
2019-12-13 09:00,32.320,25.222,33.390,7.63
2019-12-13 10:00,32.287,25.205,33.308,7.57
2019-12-13 11:00,32.280,25.201,33.293,7.56
2019-12-13 12:00,32.266,25.200,33.217,7.48
2019-12-13 13:00,32.282,25.204,33.290,7.55
2019-12-13 14:00,32.283,25.206,33.283,7.54
2019-12-13 15:00,32.344,25.237,33.441,7.66
2019-12-13 16:00,32.358,25.250,33.446,7.65
2019-12-13 17:00,32.329,25.235,33.372,7.60
2019-12-13 18:00,32.332,25.237,33.375,7.60
2019-12-13 19:00,32.233,25.176,33.178,7.47
2019-12-13 20:00,32.287,25.206,33.300,7.56
2019-12-13 21:00,32.337,25.232,33.433,7.66
2019-12-13 22:00,32.277,25.176,33.436,7.73
2019-12-13 23:00,32.269,25.169,33.428,7.73
2019-12-14 00:00,32.267,25.168,33.420,7.72
2019-12-14 01:00,32.266,25.166,33.429,7.73
2019-12-14 02:00,32.263,25.167,33.400,7.70
2019-12-14 03:00,32.259,25.169,33.367,7.67
2019-12-14 04:00,32.266,25.180,33.342,7.63
2019-12-14 05:00,32.305,25.223,33.299,7.54
2019-12-14 06:00,32.467,25.325,33.604,7.72
2019-12-14 07:00,32.261,25.163,33.417,7.72
2019-12-14 08:00,32.284,25.188,33.400,7.68
2019-12-14 09:00,32.412,25.277,33.591,7.76
2019-12-14 10:00,32.405,25.263,33.636,7.82
2019-12-14 11:00,32.260,25.152,33.479,7.79
2019-12-14 12:00,32.276,25.163,33.501,7.80
2019-12-14 13:00,32.273,25.167,33.460,7.76
2019-12-14 14:00,32.293,25.184,33.473,7.75
2019-12-14 15:00,32.295,25.187,33.464,7.74
2019-12-14 16:00,32.352,25.227,33.548,7.77
2019-12-14 17:00,32.360,25.239,33.520,7.73
2019-12-14 18:00,32.543,25.376,33.731,7.78
2019-12-14 19:00,32.405,25.278,33.542,7.71
2019-12-14 20:00,32.368,25.243,33.546,7.76
2019-12-14 21:00,32.517,25.361,33.674,7.74
2019-12-14 22:00,32.433,25.298,33.580,7.72
2019-12-14 23:00,32.398,25.251,33.662,7.86
2019-12-15 00:00,32.309,25.189,33.536,7.81
2019-12-15 01:00,32.326,25.205,33.536,7.79
2019-12-15 02:00,32.455,25.320,33.576,7.70
2019-12-15 03:00,32.547,25.382,33.720,7.76
2019-12-15 04:00,32.604,25.411,33.870,7.87
2019-12-15 05:00,32.670,25.442,34.057,8.02
2019-12-15 06:00,32.584,25.397,33.843,7.86
2019-12-15 07:00,32.598,25.407,33.858,7.87
2019-12-15 08:00,32.379,25.244,33.598,7.80
2019-12-15 09:00,32.412,25.270,33.631,7.81
2019-12-15 10:00,32.417,25.275,33.631,7.80
2019-12-15 11:00,32.376,25.249,33.550,7.75
2019-12-15 12:00,32.470,25.308,33.727,7.85
2019-12-15 13:00,32.449,25.297,33.679,7.82
2019-12-15 14:00,32.574,25.366,33.970,8.02
2019-12-15 15:00,32.628,25.399,34.081,8.09
2019-12-15 16:00,32.595,25.384,33.984,8.01
2019-12-15 17:00,32.572,25.372,33.921,7.97
2019-12-15 18:00,32.603,25.386,34.012,8.04
2019-12-15 19:00,32.599,25.392,33.959,7.98
2019-12-15 20:00,32.598,25.392,33.954,7.98
2019-12-15 21:00,32.611,25.399,33.982,7.99
2019-12-15 22:00,32.620,25.401,34.018,8.03
2019-12-15 23:00,32.606,25.396,33.971,7.99
2019-12-16 00:00,32.623,25.406,34.007,8.01
2019-12-16 01:00,32.620,25.409,33.973,7.98
2019-12-16 02:00,32.655,25.423,34.083,8.06
2019-12-16 03:00,32.630,25.418,33.975,7.97
2019-12-16 04:00,32.639,25.421,34.011,8.00
2019-12-16 05:00,32.632,25.424,33.954,7.94
2019-12-16 06:00,32.632,25.428,33.927,7.91
2019-12-16 07:00,32.627,25.428,33.894,7.88
2019-12-16 08:00,32.634,25.433,33.910,7.89
2019-12-16 09:00,32.647,25.437,33.957,7.93
2019-12-16 10:00,32.646,25.438,33.941,7.91
2019-12-16 11:00,32.639,25.436,33.917,7.89
2019-12-16 12:00,32.638,25.435,33.916,7.89
2019-12-16 13:00,32.645,25.439,33.937,7.91
2019-12-16 14:00,32.650,25.442,33.943,7.91
2019-12-16 15:00,32.647,25.442,33.927,7.89
2019-12-16 16:00,32.658,25.450,33.941,7.90
2019-12-16 17:00,32.673,25.460,33.967,7.91
2019-12-16 18:00,32.700,25.478,34.013,7.93
2019-12-16 19:00,32.710,25.483,34.036,7.95
2019-12-16 20:00,32.698,25.475,34.016,7.94
2019-12-16 21:00,32.704,25.482,34.008,7.93
2019-12-16 22:00,32.684,25.480,33.912,7.84
2019-12-16 23:00,32.675,25.468,33.925,7.86
2019-12-17 00:00,32.678,25.463,33.979,7.92
2019-12-17 01:00,32.667,25.462,33.917,7.86
2019-12-17 02:00,32.665,25.461,33.914,7.86
2019-12-17 03:00,32.673,25.464,33.941,7.88
2019-12-17 04:00,32.667,25.463,33.918,7.86
2019-12-17 05:00,32.695,25.482,33.959,7.88
2019-12-17 06:00,32.718,25.491,34.031,7.94
2019-12-17 07:00,32.728,25.501,34.030,7.92
2019-12-17 08:00,32.750,25.507,34.119,8.00
2019-12-17 09:00,32.753,25.510,34.117,8.00
2019-12-17 10:00,32.740,25.508,34.057,7.94
2019-12-17 11:00,32.715,25.493,34.007,7.91
2019-12-17 12:00,32.687,25.489,33.869,7.78
2019-12-17 13:00,32.702,25.492,33.933,7.84
2019-12-17 14:00,32.687,25.486,33.888,7.81
2019-12-17 15:00,32.682,25.489,33.843,7.76
2019-12-17 16:00,32.714,25.495,33.990,7.89
2019-12-17 17:00,32.771,25.512,34.207,8.08
2019-12-17 18:00,32.760,25.511,34.156,8.03
2019-12-17 19:00,32.767,25.514,34.171,8.04
2019-12-17 20:00,32.768,25.514,34.177,8.05
2019-12-17 21:00,32.768,25.516,34.167,8.04
2019-12-17 22:00,32.769,25.516,34.174,8.04
2019-12-17 23:00,32.764,25.515,34.153,8.03
2019-12-18 00:00,32.762,25.514,34.147,8.02
2019-12-18 01:00,32.766,25.514,34.165,8.04
2019-12-18 02:00,32.765,25.515,34.155,8.03
2019-12-18 03:00,32.766,25.515,34.162,8.03
2019-12-18 04:00,32.768,25.518,34.155,8.02
2019-12-18 05:00,32.767,25.518,34.154,8.02
2019-12-18 06:00,32.770,25.519,34.162,8.03
2019-12-18 07:00,32.774,25.520,34.177,8.04
2019-12-18 08:00,32.777,25.523,34.178,8.04
2019-12-18 09:00,32.774,25.523,34.161,8.02
2019-12-18 10:00,32.760,25.516,34.124,8.00
2019-12-18 11:00,32.748,25.510,34.088,7.97
2019-12-18 12:00,32.744,25.506,34.090,7.98
2019-12-18 13:00,32.751,25.511,34.098,7.98
2019-12-18 14:00,32.751,25.510,34.111,7.99
2019-12-18 15:00,32.755,25.515,34.101,7.98
2019-12-18 16:00,32.744,25.507,34.086,7.97
2019-12-18 17:00,32.737,25.504,34.062,7.95
2019-12-18 18:00,32.741,25.507,34.070,7.96
2019-12-18 19:00,32.742,25.509,34.066,7.95
2019-12-18 20:00,32.749,25.512,34.083,7.96
2019-12-18 21:00,32.758,25.515,34.119,7.99
2019-12-18 22:00,32.763,25.517,34.135,8.01
2019-12-18 23:00,32.761,25.516,34.127,8.00
2019-12-19 00:00,32.757,25.515,34.111,7.99
2019-12-19 01:00,32.744,25.510,34.068,7.95
2019-12-19 02:00,32.730,25.505,34.021,7.91
2019-12-19 03:00,32.733,25.504,34.037,7.93
2019-12-19 04:00,32.737,25.506,34.049,7.94
2019-12-19 05:00,32.760,25.516,34.125,8.00
2019-12-19 06:00,32.762,25.516,34.133,8.00
2019-12-19 07:00,32.772,25.519,34.168,8.03
2019-12-19 08:00,32.325,25.259,33.198,7.40
2019-12-19 09:00,32.247,25.222,32.968,7.22
2019-12-19 10:00,32.340,25.267,33.232,7.42
2019-12-19 11:00,32.003,25.067,32.503,6.94